IK5WWP Weather Reports


Display with metric or nautical units.
time (UTC)temp
F
wind
direction
speed
MPH
gust
MPH
rain 1hr
in
rain 24hr
in
rain mn
in
humidity
%
barometer
mb
20260509024336 55 0 0.0 0.0 0.00 0.00 0.00 86 1015.6
20260509023436 55 0 0.0 0.0 0.00 0.00 0.00 85 1015.4
20260509022536 55 0 0.0 0.0 0.00 0.00 0.00 85 1015.6
20260509021636 56 0 0.0 0.0 0.00 0.00 0.00 84 1015.6
20260509020737 56 0 0.0 0.0 0.00 0.00 0.00 84 1015.4
20260509015836 56 1 0.0 2.0 0.00 0.00 0.00 83 1015.2
20260509014936 57 0 0.0 0.0 0.00 0.00 0.00 82 1015.2
20260509014036 57 1 0.0 2.0 0.00 0.00 0.00 80 1015.2
20260509013136 58 7 0.0 2.0 0.00 0.00 0.00 79 1014.9
20260509012236 58 9 1.0 4.0 0.00 0.00 0.00 80 1015.2
20260509011336 57 4 1.0 4.0 0.00 0.00 0.00 80 1015.3
20260509010436 57 5 2.0 4.0 0.00 0.00 0.00 81 1015.0
20260509005536 58 0 0.0 0.0 0.00 0.00 0.00 81 1015.4
20260509004636 58 1 0.0 2.0 0.00 0.00 0.00 79 1015.1
20260509003736 58 1 0.0 2.0 0.00 0.00 0.00 79 1015.0
20260509002836 59 1 0.0 2.0 0.00 0.00 0.00 78 1015.0
20260509001936 59 1 1.0 2.0 0.00 0.00 0.00 79 1015.0
20260508235236 59 1 1.0 2.0 0.00 0.00 0.00 79 1014.7
20260508234336 59 1 1.0 2.0 0.00 0.00 0.00 79 1014.8
20260508231636 59 1 1.0 2.0 0.00 0.00 0.00 80 1015.0
20260508230737 59 1 0.0 4.0 0.00 0.00 0.00 79 1014.8
20260508224036 60 333 2.0 2.0 0.00 0.00 0.00 78 1015.2
20260508223137 60 314 2.0 4.0 0.00 0.00 0.00 78 1015.0
20260508222236 60 314 2.0 4.0 0.00 0.00 0.00 78 1015.3
20260508221337 60 314 2.0 2.0 0.00 0.00 0.00 78 1015.2